sat.trackr.live / text

‹ back to catalog

STARLINK-32255

NORAD 60417 · 2024-141V

PAYLOAD ACTIVE UNKNOWN

§ Identity

Operator
Country
US
Launch date
2024-08-10
Launch site
AFETR
Launch vehicle
Mass (kg)
RCS (m²)

Purposes: comms

External: N2YO · Heavens-Above · Gunter

§ Orbital elements

Epoch: 2026-09-21T14:37:54.973920Z

Period
93.85 min
Inclination
53.1609°
Eccentricity
0.0001049
Mean motion
15.34386354 rev/d
Perigee alt
462.0 km
Apogee alt
463.5 km
Semi-major
6,840.9 km
B*
-1.5589e-5
RAAN
48.5311°
Arg perigee
82.0426°
Mean anomaly
278.0696°
Rev number
11,963

§ Raw data

STARLINK-322551 60417U 24141V   26264.60966405 -.00000902  00000+0 -15589-4 0  99902 60417  53.1609  48.5311 0001049  82.0426 278.0696 15.34386354119632

JSON: /api/v1/satellites/60417 · /tle

For live sub-satellite position, see the globe view (requires WebGL).

§ Visibility from observer

Set your observer location to see the next 7 days of passes ≥ 10°. The values pass through the URL so the page stays shareable.

No JS? Fill the form by hand. The geolocation button needs JavaScript.